contact:dominique.lefevre@mio.osupytheas.fr, maurice.libes@osupytheas.fr, didier.mallarino@osupytheas.fr
Project:EMSO http://www.emso-fr.org/EMSO-France
Depth: 2436.0 m
Title:EMSO Ligure Ouest : Data MII capteur MICROCAT
DateTime_Computer,Latitude,Longitude,Temperature,Conductivity,Pressure,DateTime_Instrument
DateTime_Computer,Latitude,Longitude,degC,S m-1,dbar,DateTime_Instrument
2022-09-25T00:02:58Z,42.805,6.029,13.3084,4.60089,2470.553,2022-9-25T02:04:51Z
2022-09-25T00:06:01Z,42.805,6.029,13.3084,4.60094,2470.553,2022-9-25T02:07:54Z
2022-09-25T00:09:04Z,42.805,6.029,13.3079,4.60087,2470.577,2022-9-25T02:10:57Z
2022-09-25T00:12:07Z,42.805,6.029,13.3080,4.60108,2470.553,2022-9-25T02:14:00Z
2022-09-25T00:15:10Z,42.805,6.029,13.3080,4.60093,2470.53,2022-9-25T02:17:03Z
2022-09-25T00:18:13Z,42.805,6.029,13.3076,4.60101,2470.567,2022-9-25T02:20:07Z
2022-09-25T00:21:16Z,42.805,6.029,13.3083,4.60097,2470.591,2022-9-25T02:23:10Z
2022-09-25T00:24:20Z,42.805,6.029,13.3082,4.60104,2470.553,2022-9-25T02:26:13Z
2022-09-25T00:27:23Z,42.805,6.029,13.3094,4.60086,2470.567,2022-9-25T02:29:16Z
2022-09-25T00:30:26Z,42.805,6.029,13.3094,4.60080,2470.567,2022-9-25T02:32:19Z
2022-09-25T00:33:29Z,42.805,6.029,13.3064,4.60093,2470.567,2022-9-25T02:35:22Z
2022-09-25T00:36:32Z,42.805,6.029,13.3077,4.60083,2470.544,2022-9-25T02:38:25Z
2022-09-25T00:39:35Z,42.805,6.029,13.3093,4.60074,2470.567,2022-9-25T02:41:28Z
2022-09-25T00:42:38Z,42.805,6.029,13.3097,4.60081,2470.567,2022-9-25T02:44:32Z
2022-09-25T00:45:41Z,42.805,6.029,13.3101,4.60109,2470.553,2022-9-25T02:47:35Z
2022-09-25T00:48:45Z,42.805,6.029,13.3095,4.60094,2470.544,2022-9-25T02:50:38Z
2022-09-25T00:51:48Z,42.805,6.029,13.3091,4.60143,2470.53,2022-9-25T02:53:41Z
2022-09-25T00:54:51Z,42.805,6.029,13.3079,4.60082,2470.591,2022-9-25T02:56:44Z
2022-09-25T00:57:54Z,42.805,6.029,13.3084,4.60097,2470.493,2022-9-25T02:59:47Z
2022-09-25T01:00:57Z,42.805,6.029,13.3083,4.60080,2470.52,2022-9-25T03:02:50Z
2022-09-25T01:04:00Z,42.805,6.029,13.3097,4.60086,2470.52,2022-9-25T03:05:53Z
2022-09-25T01:07:03Z,42.805,6.029,13.3086,4.60126,2470.53,2022-9-25T03:08:57Z
2022-09-25T01:10:06Z,42.805,6.029,13.3094,4.60076,2470.53,2022-9-25T03:12:00Z
2022-09-25T01:13:09Z,42.805,6.029,13.3098,4.60098,2470.53,2022-9-25T03:15:03Z
2022-09-25T01:16:13Z,42.805,6.029,13.3093,4.60100,2470.53,2022-9-25T03:18:06Z
2022-09-25T01:19:16Z,42.805,6.029,13.3084,4.60109,2470.53,2022-9-25T03:21:09Z
2022-09-25T01:22:19Z,42.805,6.029,13.3085,4.60109,2470.567,2022-9-25T03:24:12Z
2022-09-25T01:25:22Z,42.805,6.029,13.3089,4.60150,2470.52,2022-9-25T03:27:15Z
2022-09-25T01:28:25Z,42.805,6.029,13.3097,4.60110,2470.52,2022-9-25T03:30:18Z
2022-09-25T01:31:28Z,42.805,6.029,13.3095,4.60102,2470.52,2022-9-25T03:33:21Z
2022-09-25T01:34:31Z,42.805,6.029,13.3092,4.60085,2470.544,2022-9-25T03:36:25Z
2022-09-25T01:37:34Z,42.805,6.029,13.3089,4.60126,2470.544,2022-9-25T03:39:28Z
2022-09-25T01:40:38Z,42.805,6.029,13.3060,4.60108,2470.544,2022-9-25T03:42:31Z
2022-09-25T01:43:41Z,42.805,6.029,13.3084,4.60067,2470.544,2022-9-25T03:45:34Z
2022-09-25T01:46:44Z,42.805,6.029,13.3064,4.60063,2470.52,2022-9-25T03:48:37Z
2022-09-25T01:49:47Z,42.805,6.029,13.3067,4.60074,2470.53,2022-9-25T03:51:40Z
2022-09-25T01:52:50Z,42.805,6.029,13.3078,4.60075,2470.544,2022-9-25T03:54:43Z
2022-09-25T01:55:53Z,42.805,6.029,13.3071,4.60075,2470.52,2022-9-25T03:57:46Z
2022-09-25T01:58:56Z,42.805,6.029,13.3063,4.60087,2470.53,2022-9-25T04:00:50Z
2022-09-25T02:01:59Z,42.805,6.029,13.3068,4.60115,2470.507,2022-9-25T04:03:53Z
2022-09-25T02:05:03Z,42.805,6.029,13.3053,4.60077,2470.544,2022-9-25T04:06:56Z
2022-09-25T02:08:06Z,42.805,6.029,13.3055,4.60074,2470.52,2022-9-25T04:09:59Z
2022-09-25T02:11:09Z,42.805,6.029,13.3044,4.60086,2470.52,2022-9-25T04:13:02Z
2022-09-25T02:14:12Z,42.805,6.029,13.3056,4.60077,2470.53,2022-9-25T04:16:05Z
2022-09-25T02:17:15Z,42.805,6.029,13.3061,4.60077,2470.53,2022-9-25T04:19:08Z
2022-09-25T02:20:18Z,42.805,6.029,13.3073,4.60079,2470.52,2022-9-25T04:22:11Z
2022-09-25T02:23:21Z,42.805,6.029,13.3095,4.60108,2470.507,2022-9-25T04:25:15Z
2022-09-25T02:26:24Z,42.805,6.029,13.3109,4.60077,2470.53,2022-9-25T04:28:18Z
2022-09-25T02:29:27Z,42.805,6.029,13.3109,4.60104,2470.53,2022-9-25T04:31:21Z
2022-09-25T02:32:31Z,42.805,6.029,13.3107,4.60079,2470.544,2022-9-25T04:34:24Z
2022-09-25T02:35:34Z,42.805,6.029,13.3116,4.60081,2470.497,2022-9-25T04:37:27Z
2022-09-25T02:38:37Z,42.805,6.029,13.3078,4.60111,2470.544,2022-9-25T04:40:30Z
2022-09-25T02:41:40Z,42.805,6.029,13.3082,4.60110,2470.567,2022-9-25T04:43:33Z
2022-09-25T02:44:43Z,42.805,6.029,13.3084,4.60104,2470.544,2022-9-25T04:46:36Z
2022-09-25T02:47:46Z,42.805,6.029,13.3052,4.60112,2470.52,2022-9-25T04:49:40Z
2022-09-25T02:50:49Z,42.805,6.029,13.3084,4.60125,2470.553,2022-9-25T04:52:43Z
2022-09-25T02:53:52Z,42.805,6.029,13.3053,4.60140,2470.53,2022-9-25T04:55:46Z
2022-09-25T02:56:56Z,42.805,6.029,13.3059,4.60113,2470.567,2022-9-25T04:58:49Z
2022-09-25T02:59:59Z,42.805,6.029,13.3036,4.60148,2470.577,2022-9-25T05:01:52Z
2022-09-25T03:03:02Z,42.805,6.029,13.3044,4.60114,2470.567,2022-9-25T05:04:55Z
2022-09-25T03:06:05Z,42.805,6.029,13.3068,4.60133,2470.553,2022-9-25T05:07:58Z
2022-09-25T03:09:08Z,42.805,6.029,13.3051,4.60132,2470.567,2022-9-25T05:11:01Z
2022-09-25T03:12:11Z,42.805,6.029,13.3043,4.60122,2470.553,2022-9-25T05:14:04Z
2022-09-25T03:15:14Z,42.805,6.029,13.3034,4.60153,2470.553,2022-9-25T05:17:08Z
2022-09-25T03:18:17Z,42.805,6.029,13.3028,4.60165,2470.507,2022-9-25T05:20:11Z
2022-09-25T03:21:21Z,42.805,6.029,13.3031,4.60110,2470.553,2022-9-25T05:23:14Z
2022-09-25T03:24:24Z,42.805,6.029,13.3043,4.60121,2470.53,2022-9-25T05:26:17Z
2022-09-25T03:27:27Z,42.805,6.029,13.3035,4.60181,2470.591,2022-9-25T05:29:20Z
2022-09-25T03:30:30Z,42.805,6.029,13.3041,4.60167,2470.544,2022-9-25T05:32:23Z
2022-09-25T03:33:33Z,42.805,6.029,13.3039,4.60126,2470.567,2022-9-25T05:35:26Z
2022-09-25T03:36:36Z,42.805,6.029,13.3055,4.60151,2470.544,2022-9-25T05:38:29Z
2022-09-25T03:39:39Z,42.805,6.029,13.3043,4.60135,2470.6,2022-9-25T05:41:33Z
2022-09-25T03:42:42Z,42.805,6.029,13.3028,4.60180,2470.567,2022-9-25T05:44:36Z
2022-09-25T03:45:46Z,42.805,6.029,13.3032,4.60173,2470.577,2022-9-25T05:47:39Z
2022-09-25T03:48:49Z,42.805,6.029,13.3036,4.60126,2470.591,2022-9-25T05:50:42Z
2022-09-25T03:51:52Z,42.805,6.029,13.3043,4.60118,2470.553,2022-9-25T05:53:45Z
2022-09-25T03:54:55Z,42.805,6.029,13.3048,4.60104,2470.591,2022-9-25T05:56:48Z
2022-09-25T03:57:58Z,42.805,6.029,13.3061,4.60106,2470.553,2022-9-25T05:59:51Z
2022-09-25T04:01:01Z,42.805,6.029,13.3076,4.60140,2470.567,2022-9-25T06:02:54Z
2022-09-25T04:04:04Z,42.805,6.029,13.3078,4.60129,2470.553,2022-9-25T06:05:58Z
2022-09-25T04:07:07Z,42.805,6.029,13.3066,4.60148,2470.553,2022-9-25T06:09:01Z
2022-09-25T04:10:10Z,42.805,6.029,13.3063,4.60154,2470.567,2022-9-25T06:12:04Z
2022-09-25T04:13:14Z,42.805,6.029,13.3069,4.60131,2470.6,2022-9-25T06:15:07Z
2022-09-25T04:16:17Z,42.805,6.029,13.3056,4.60148,2470.6,2022-9-25T06:18:10Z
2022-09-25T04:19:20Z,42.805,6.029,13.3041,4.60114,2470.6,2022-9-25T06:21:13Z
2022-09-25T04:22:23Z,42.805,6.029,13.3030,4.60135,2470.6,2022-9-25T06:24:16Z
2022-09-25T04:25:26Z,42.805,6.029,13.3047,4.60103,2470.637,2022-9-25T06:27:19Z
2022-09-25T04:28:29Z,42.805,6.029,13.3058,4.60102,2470.614,2022-9-25T06:30:23Z
2022-09-25T04:31:32Z,42.805,6.029,13.3034,4.60144,2470.624,2022-9-25T06:33:26Z
2022-09-25T04:34:35Z,42.805,6.029,13.3043,4.60108,2470.614,2022-9-25T06:36:29Z
2022-09-25T04:37:39Z,42.805,6.029,13.3052,4.60149,2470.624,2022-9-25T06:39:32Z
2022-09-25T04:40:42Z,42.805,6.029,13.3067,4.60117,2470.637,2022-9-25T06:42:35Z
2022-09-25T04:43:45Z,42.805,6.029,13.3084,4.60150,2470.6,2022-9-25T06:45:38Z
2022-09-25T04:46:48Z,42.805,6.029,13.3078,4.60127,2470.614,2022-9-25T06:48:41Z
2022-09-25T04:49:51Z,42.805,6.029,13.3078,4.60114,2470.614,2022-9-25T06:51:44Z
2022-09-25T04:52:54Z,42.805,6.029,13.3073,4.60132,2470.6,2022-9-25T06:54:48Z
2022-09-25T04:55:57Z,42.805,6.029,13.3065,4.60154,2470.637,2022-9-25T06:57:51Z
2022-09-25T04:59:00Z,42.805,6.029,13.3058,4.60157,2470.624,2022-9-25T07:00:54Z
2022-09-25T05:02:04Z,42.805,6.029,13.3055,4.60146,2470.614,2022-9-25T07:03:57Z
2022-09-25T05:05:07Z,42.805,6.029,13.3070,4.60116,2470.6,2022-9-25T07:07:00Z
2022-09-25T05:08:10Z,42.805,6.029,13.3063,4.60137,2470.646,2022-9-25T07:10:03Z
2022-09-25T05:11:13Z,42.805,6.029,13.3071,4.60140,2470.637,2022-9-25T07:13:06Z
2022-09-25T05:14:16Z,42.805,6.029,13.3063,4.60105,2470.6,2022-9-25T07:16:09Z
2022-09-25T05:17:19Z,42.805,6.029,13.3063,4.60092,2470.661,2022-9-25T07:19:12Z
2022-09-25T05:20:22Z,42.805,6.029,13.3061,4.60112,2470.624,2022-9-25T07:22:16Z
2022-09-25T05:23:25Z,42.805,6.029,13.3060,4.60133,2470.661,2022-9-25T07:25:19Z
2022-09-25T05:26:29Z,42.805,6.029,13.3053,4.60117,2470.637,2022-9-25T07:28:22Z
2022-09-25T05:29:32Z,42.805,6.029,13.3046,4.60120,2470.661,2022-9-25T07:31:25Z
2022-09-25T05:32:35Z,42.805,6.029,13.3051,4.60099,2470.684,2022-9-25T07:34:28Z
2022-09-25T05:35:38Z,42.805,6.029,13.3058,4.60104,2470.684,2022-9-25T07:37:31Z
2022-09-25T05:38:41Z,42.805,6.029,13.3064,4.60114,2470.646,2022-9-25T07:40:34Z
2022-09-25T05:41:44Z,42.805,6.029,13.3063,4.60106,2470.637,2022-9-25T07:43:37Z
2022-09-25T05:44:47Z,42.805,6.029,13.3062,4.60104,2470.693,2022-9-25T07:46:41Z
2022-09-25T05:47:50Z,42.805,6.029,13.3067,4.60134,2470.684,2022-9-25T07:49:44Z
2022-09-25T05:50:53Z,42.805,6.029,13.3059,4.60121,2470.684,2022-9-25T07:52:47Z
2022-09-25T05:53:57Z,42.805,6.029,13.3052,4.60145,2470.684,2022-9-25T07:55:50Z
2022-09-25T05:57:00Z,42.805,6.029,13.3048,4.60102,2470.637,2022-9-25T07:58:53Z
2022-09-25T06:00:03Z,42.805,6.029,13.3052,4.60131,2470.661,2022-9-25T08:01:56Z
2022-09-25T06:03:06Z,42.805,6.029,13.3067,4.60122,2470.661,2022-9-25T08:04:59Z
2022-09-25T06:06:09Z,42.805,6.029,13.3047,4.60132,2470.646,2022-9-25T08:08:02Z
2022-09-25T06:09:12Z,42.805,6.029,13.3058,4.60102,2470.646,2022-9-25T08:11:06Z
2022-09-25T06:12:15Z,42.805,6.029,13.3069,4.60112,2470.646,2022-9-25T08:14:09Z
2022-09-25T06:15:18Z,42.805,6.029,13.3044,4.60132,2470.646,2022-9-25T08:17:12Z
2022-09-25T06:18:22Z,42.805,6.029,13.3058,4.60115,2470.684,2022-9-25T08:20:15Z
2022-09-25T06:21:25Z,42.805,6.029,13.3067,4.60106,2470.661,2022-9-25T08:23:18Z
2022-09-25T06:24:28Z,42.805,6.029,13.3070,4.60117,2470.67,2022-9-25T08:26:21Z
2022-09-25T06:27:31Z,42.805,6.029,13.3058,4.60099,2470.684,2022-9-25T08:29:24Z
2022-09-25T06:30:34Z,42.805,6.029,13.3071,4.60123,2470.661,2022-9-25T08:32:27Z
2022-09-25T06:33:37Z,42.805,6.029,13.3071,4.60127,2470.646,2022-9-25T08:35:31Z
2022-09-25T06:36:40Z,42.805,6.029,13.3080,4.60131,2470.661,2022-9-25T08:38:34Z
2022-09-25T06:39:43Z,42.805,6.029,13.3046,4.60134,2470.661,2022-9-25T08:41:37Z
2022-09-25T06:42:47Z,42.805,6.029,13.3043,4.60140,2470.661,2022-9-25T08:44:40Z
2022-09-25T06:45:50Z,42.805,6.029,13.3082,4.60110,2470.646,2022-9-25T08:47:43Z
2022-09-25T06:48:53Z,42.805,6.029,13.3052,4.60126,2470.684,2022-9-25T08:50:46Z
2022-09-25T06:51:56Z,42.805,6.029,13.3065,4.60162,2470.661,2022-9-25T08:53:49Z
2022-09-25T06:54:59Z,42.805,6.029,13.3078,4.60175,2470.646,2022-9-25T08:56:52Z
2022-09-25T06:58:02Z,42.805,6.029,13.3091,4.60153,2470.661,2022-9-25T08:59:56Z
2022-09-25T07:01:05Z,42.805,6.029,13.3092,4.60142,2470.684,2022-9-25T09:02:59Z
2022-09-25T07:04:08Z,42.805,6.029,13.3051,4.60139,2470.661,2022-9-25T09:06:02Z
2022-09-25T07:07:12Z,42.805,6.029,13.3078,4.60115,2470.637,2022-9-25T09:09:05Z
2022-09-25T07:10:15Z,42.805,6.029,13.3084,4.60112,2470.637,2022-9-25T09:12:08Z
2022-09-25T07:13:18Z,42.805,6.029,13.3089,4.60137,2470.646,2022-9-25T09:15:11Z
2022-09-25T07:16:21Z,42.805,6.029,13.3086,4.60118,2470.661,2022-9-25T09:18:14Z
2022-09-25T07:19:24Z,42.805,6.029,13.3073,4.60121,2470.67,2022-9-25T09:21:17Z
2022-09-25T07:22:27Z,42.805,6.029,13.3078,4.60121,2470.684,2022-9-25T09:24:20Z
2022-09-25T07:25:30Z,42.805,6.029,13.3078,4.60102,2470.67,2022-9-25T09:27:24Z
2022-09-25T07:28:33Z,42.805,6.029,13.3078,4.60136,2470.661,2022-9-25T09:30:27Z
2022-09-25T07:31:36Z,42.805,6.029,13.3075,4.60127,2470.67,2022-9-25T09:33:30Z
2022-09-25T07:34:40Z,42.805,6.029,13.3041,4.60105,2470.624,2022-9-25T09:36:33Z
2022-09-25T07:37:43Z,42.805,6.029,13.3031,4.60140,2470.646,2022-9-25T09:39:36Z
2022-09-25T07:40:46Z,42.805,6.029,13.3054,4.60101,2470.646,2022-9-25T09:42:39Z
2022-09-25T07:43:49Z,42.805,6.029,13.3086,4.60098,2470.661,2022-9-25T09:45:42Z
2022-09-25T07:46:52Z,42.805,6.029,13.3085,4.60127,2470.646,2022-9-25T09:48:45Z
2022-09-25T07:49:55Z,42.805,6.029,13.3078,4.60112,2470.661,2022-9-25T09:51:49Z
2022-09-25T07:52:58Z,42.805,6.029,13.3070,4.60134,2470.646,2022-9-25T09:54:52Z
2022-09-25T07:56:02Z,42.805,6.029,13.3068,4.60102,2470.684,2022-9-25T09:57:55Z
2022-09-25T07:59:05Z,42.805,6.029,13.3070,4.60107,2470.637,2022-9-25T10:00:58Z
2022-09-25T08:02:08Z,42.805,6.029,13.3076,4.60106,2470.637,2022-9-25T10:04:01Z
2022-09-25T08:05:11Z,42.805,6.029,13.3070,4.60111,2470.661,2022-9-25T10:07:04Z
2022-09-25T08:08:14Z,42.805,6.029,13.3054,4.60117,2470.637,2022-9-25T10:10:07Z
2022-09-25T08:11:17Z,42.805,6.029,13.3057,4.60110,2470.624,2022-9-25T10:13:10Z
2022-09-25T08:14:20Z,42.805,6.029,13.3052,4.60112,2470.661,2022-9-25T10:16:14Z
2022-09-25T08:17:23Z,42.805,6.029,13.3043,4.60115,2470.646,2022-9-25T10:19:17Z
2022-09-25T08:20:26Z,42.805,6.029,13.3051,4.60121,2470.637,2022-9-25T10:22:20Z
2022-09-25T08:23:30Z,42.805,6.029,13.3043,4.60151,2470.661,2022-9-25T10:25:23Z
2022-09-25T08:26:33Z,42.805,6.029,13.3063,4.60109,2470.661,2022-9-25T10:28:26Z
2022-09-25T08:29:36Z,42.805,6.029,13.3054,4.60136,2470.6,2022-9-25T10:31:29Z
2022-09-25T08:32:39Z,42.805,6.029,13.3057,4.60104,2470.637,2022-9-25T10:34:32Z
2022-09-25T08:35:42Z,42.805,6.029,13.3068,4.60104,2470.614,2022-9-25T10:37:35Z
2022-09-25T08:38:45Z,42.805,6.029,13.3093,4.60095,2470.637,2022-9-25T10:40:39Z
2022-09-25T08:41:48Z,42.805,6.029,13.3075,4.60090,2470.637,2022-9-25T10:43:42Z
2022-09-25T08:44:51Z,42.805,6.029,13.3062,4.60114,2470.624,2022-9-25T10:46:45Z
2022-09-25T08:47:55Z,42.805,6.029,13.3082,4.60089,2470.624,2022-9-25T10:49:48Z
2022-09-25T08:50:58Z,42.805,6.029,13.3095,4.60079,2470.6,2022-9-25T10:52:51Z
2022-09-25T08:54:01Z,42.805,6.029,13.3047,4.60113,2470.637,2022-9-25T10:55:54Z
2022-09-25T08:57:04Z,42.805,6.029,13.3052,4.60099,2470.637,2022-9-25T10:58:57Z
2022-09-25T09:00:07Z,42.805,6.029,13.3054,4.60119,2470.624,2022-9-25T11:02:00Z
2022-09-25T09:03:10Z,42.805,6.029,13.3047,4.60112,2470.624,2022-9-25T11:05:04Z
2022-09-25T09:06:13Z,42.805,6.029,13.3038,4.60104,2470.6,2022-9-25T11:08:07Z
2022-09-25T09:09:16Z,42.805,6.029,13.3036,4.60089,2470.577,2022-9-25T11:11:10Z
2022-09-25T09:12:20Z,42.805,6.029,13.3035,4.60077,2470.6,2022-9-25T11:14:13Z
2022-09-25T09:15:23Z,42.805,6.029,13.3044,4.60107,2470.637,2022-9-25T11:17:16Z
2022-09-25T09:18:26Z,42.805,6.029,13.3031,4.60112,2470.614,2022-9-25T11:20:19Z
2022-09-25T09:21:29Z,42.805,6.029,13.3050,4.60104,2470.6,2022-9-25T11:23:22Z
2022-09-25T09:24:32Z,42.805,6.029,13.3046,4.60083,2470.6,2022-9-25T11:26:25Z
2022-09-25T09:27:35Z,42.805,6.029,13.3053,4.60094,2470.591,2022-9-25T11:29:29Z
2022-09-25T09:30:38Z,42.805,6.029,13.3043,4.60102,2470.637,2022-9-25T11:32:32Z
2022-09-25T09:33:42Z,42.805,6.029,13.3044,4.60115,2470.591,2022-9-25T11:35:35Z
2022-09-25T09:36:45Z,42.805,6.029,13.3046,4.60116,2470.591,2022-9-25T11:38:38Z
2022-09-25T09:39:48Z,42.805,6.029,13.3034,4.60104,2470.6,2022-9-25T11:41:41Z
2022-09-25T09:42:51Z,42.805,6.029,13.3029,4.60094,2470.614,2022-9-25T11:44:44Z
2022-09-25T09:45:54Z,42.805,6.029,13.3041,4.60102,2470.577,2022-9-25T11:47:47Z
2022-09-25T09:48:57Z,42.805,6.029,13.3051,4.60108,2470.577,2022-9-25T11:50:51Z
2022-09-25T09:52:00Z,42.805,6.029,13.3089,4.60109,2470.591,2022-9-25T11:53:54Z
2022-09-25T09:55:03Z,42.805,6.029,13.3039,4.60096,2470.567,2022-9-25T11:56:57Z
2022-09-25T09:58:07Z,42.805,6.029,13.3040,4.60110,2470.591,2022-9-25T12:00:00Z
2022-09-25T10:01:10Z,42.805,6.029,13.3054,4.60106,2470.567,2022-9-25T12:03:03Z
2022-09-25T10:04:13Z,42.805,6.029,13.3070,4.60081,2470.591,2022-9-25T12:06:06Z
2022-09-25T10:07:16Z,42.805,6.029,13.3085,4.60072,2470.591,2022-9-25T12:09:09Z
2022-09-25T10:10:19Z,42.805,6.029,13.3069,4.60081,2470.53,2022-9-25T12:12:12Z
2022-09-25T10:13:22Z,42.805,6.029,13.3048,4.60104,2470.567,2022-9-25T12:15:15Z
2022-09-25T10:16:25Z,42.805,6.029,13.3054,4.60100,2470.553,2022-9-25T12:18:19Z
2022-09-25T10:19:28Z,42.805,6.029,13.3054,4.60075,2470.591,2022-9-25T12:21:22Z
2022-09-25T10:22:32Z,42.805,6.029,13.3048,4.60070,2470.553,2022-9-25T12:24:25Z
2022-09-25T10:25:35Z,42.805,6.029,13.3047,4.60100,2470.567,2022-9-25T12:27:28Z
2022-09-25T10:28:38Z,42.805,6.029,13.3051,4.60094,2470.53,2022-9-25T12:30:31Z
2022-09-25T10:31:41Z,42.805,6.029,13.3067,4.60080,2470.567,2022-9-25T12:33:34Z
2022-09-25T10:34:44Z,42.805,6.029,13.3050,4.60084,2470.544,2022-9-25T12:36:37Z
2022-09-25T10:37:47Z,42.805,6.029,13.3058,4.60110,2470.544,2022-9-25T12:39:41Z
2022-09-25T10:40:50Z,42.805,6.029,13.3031,4.60107,2470.507,2022-9-25T12:42:44Z
2022-09-25T10:43:53Z,42.805,6.029,13.3056,4.60127,2470.567,2022-9-25T12:45:47Z
2022-09-25T10:46:57Z,42.805,6.029,13.3074,4.60108,2470.53,2022-9-25T12:48:50Z
2022-09-25T10:50:00Z,42.805,6.029,13.3075,4.60111,2470.553,2022-9-25T12:51:53Z
2022-09-25T10:53:03Z,42.805,6.029,13.3064,4.60100,2470.567,2022-9-25T12:54:56Z
2022-09-25T10:56:06Z,42.805,6.029,13.3045,4.60084,2470.553,2022-9-25T12:57:59Z
2022-09-25T10:59:09Z,42.805,6.029,13.3058,4.60072,2470.553,2022-9-25T13:01:02Z
2022-09-25T11:02:12Z,42.805,6.029,13.3053,4.60074,2470.544,2022-9-25T13:04:06Z
2022-09-25T11:05:15Z,42.805,6.029,13.3069,4.60079,2470.553,2022-9-25T13:07:09Z
2022-09-25T11:08:18Z,42.805,6.029,13.3060,4.60089,2470.53,2022-9-25T13:10:12Z
2022-09-25T11:11:22Z,42.805,6.029,13.3048,4.60087,2470.567,2022-9-25T13:13:15Z
2022-09-25T11:14:25Z,42.805,6.029,13.3057,4.60105,2470.507,2022-9-25T13:16:18Z
2022-09-25T11:17:28Z,42.805,6.029,13.3084,4.60092,2470.507,2022-9-25T13:19:21Z
2022-09-25T11:20:31Z,42.805,6.029,13.3084,4.60086,2470.507,2022-9-25T13:22:24Z
2022-09-25T11:23:34Z,42.805,6.029,13.3059,4.60097,2470.544,2022-9-25T13:25:27Z
2022-09-25T11:26:37Z,42.805,6.029,13.3057,4.60125,2470.497,2022-9-25T13:28:31Z
2022-09-25T11:29:40Z,42.805,6.029,13.3065,4.60092,2470.544,2022-9-25T13:31:34Z
2022-09-25T11:32:43Z,42.805,6.029,13.3068,4.60107,2470.507,2022-9-25T13:34:37Z
2022-09-25T11:35:47Z,42.805,6.029,13.3092,4.60127,2470.544,2022-9-25T13:37:40Z
2022-09-25T11:38:50Z,42.805,6.029,13.3048,4.60111,2470.52,2022-9-25T13:40:43Z
2022-09-25T11:41:53Z,42.805,6.029,13.3060,4.60104,2470.544,2022-9-25T13:43:46Z
2022-09-25T11:44:56Z,42.805,6.029,13.3075,4.60087,2470.507,2022-9-25T13:46:49Z
2022-09-25T11:47:59Z,42.805,6.029,13.3070,4.60102,2470.497,2022-9-25T13:49:52Z
2022-09-25T11:51:02Z,42.805,6.029,13.3067,4.60080,2470.53,2022-9-25T13:52:56Z
2022-09-25T11:54:05Z,42.805,6.029,13.3066,4.60102,2470.483,2022-9-25T13:55:59Z
2022-09-25T11:57:08Z,42.805,6.029,13.3084,4.60077,2470.53,2022-9-25T13:59:02Z
2022-09-25T12:00:12Z,42.805,6.029,13.3065,4.60070,2470.497,2022-9-25T14:02:05Z
2022-09-25T12:03:15Z,42.805,6.029,13.3041,4.60098,2470.507,2022-9-25T14:05:08Z
2022-09-25T12:06:18Z,42.805,6.029,13.3058,4.60087,2470.544,2022-9-25T14:08:11Z
2022-09-25T12:09:21Z,42.805,6.029,13.3090,4.60097,2470.497,2022-9-25T14:11:14Z
2022-09-25T12:12:24Z,42.805,6.029,13.3075,4.60120,2470.52,2022-9-25T14:14:17Z
2022-09-25T12:15:27Z,42.805,6.029,13.3045,4.60081,2470.507,2022-9-25T14:17:21Z
2022-09-25T12:18:30Z,42.805,6.029,13.3036,4.60105,2470.52,2022-9-25T14:20:24Z
2022-09-25T12:21:33Z,42.805,6.029,13.3036,4.60104,2470.544,2022-9-25T14:23:27Z
2022-09-25T12:24:37Z,42.805,6.029,13.3049,4.60089,2470.497,2022-9-25T14:26:30Z
2022-09-25T12:27:40Z,42.805,6.029,13.3090,4.60093,2470.52,2022-9-25T14:29:33Z
2022-09-25T12:30:43Z,42.805,6.029,13.3073,4.60079,2470.507,2022-9-25T14:32:36Z
2022-09-25T12:33:46Z,42.805,6.029,13.3063,4.60087,2470.483,2022-9-25T14:35:39Z
2022-09-25T12:36:49Z,42.805,6.029,13.3024,4.60107,2470.52,2022-9-25T14:38:42Z
2022-09-25T12:39:52Z,42.805,6.029,13.3037,4.60107,2470.52,2022-9-25T14:41:46Z
2022-09-25T12:42:55Z,42.805,6.029,13.3040,4.60114,2470.507,2022-9-25T14:44:49Z
2022-09-25T12:45:58Z,42.805,6.029,13.3042,4.60096,2470.483,2022-9-25T14:47:52Z
2022-09-25T12:49:02Z,42.805,6.029,13.3043,4.60087,2470.437,2022-9-25T14:50:55Z
2022-09-25T12:52:05Z,42.805,6.029,13.3038,4.60084,2470.46,2022-9-25T14:53:58Z
2022-09-25T12:55:08Z,42.805,6.029,13.3043,4.60089,2470.474,2022-9-25T14:57:01Z
2022-09-25T12:58:11Z,42.805,6.029,13.3045,4.60104,2470.52,2022-9-25T15:00:04Z
2022-09-25T13:01:14Z,42.805,6.029,13.3026,4.60107,2470.497,2022-9-25T15:03:07Z
2022-09-25T13:04:17Z,42.805,6.029,13.3058,4.60113,2470.46,2022-9-25T15:06:11Z
2022-09-25T13:07:20Z,42.805,6.029,13.3061,4.60098,2470.497,2022-9-25T15:09:14Z
2022-09-25T13:10:23Z,42.805,6.029,13.3056,4.60085,2470.474,2022-9-25T15:12:17Z
2022-09-25T13:13:27Z,42.805,6.029,13.3062,4.60090,2470.474,2022-9-25T15:15:20Z
2022-09-25T13:16:30Z,42.805,6.029,13.3053,4.60107,2470.474,2022-9-25T15:18:23Z
2022-09-25T13:19:33Z,42.805,6.029,13.3078,4.60088,2470.497,2022-9-25T15:21:26Z
2022-09-25T13:22:36Z,42.805,6.029,13.3088,4.60101,2470.474,2022-9-25T15:24:29Z
2022-09-25T13:25:39Z,42.805,6.029,13.3061,4.60117,2470.483,2022-9-25T15:27:32Z
2022-09-25T13:28:42Z,42.805,6.029,13.3070,4.60102,2470.483,2022-9-25T15:30:36Z
2022-09-25T13:31:45Z,42.805,6.029,13.3079,4.60101,2470.497,2022-9-25T15:33:39Z
2022-09-25T13:34:48Z,42.805,6.029,13.3089,4.60094,2470.446,2022-9-25T15:36:42Z
2022-09-25T13:37:52Z,42.805,6.029,13.3086,4.60099,2470.46,2022-9-25T15:39:45Z
2022-09-25T13:40:55Z,42.805,6.029,13.3086,4.60101,2470.483,2022-9-25T15:42:48Z
2022-09-25T13:43:58Z,42.805,6.029,13.3074,4.60125,2470.497,2022-9-25T15:45:51Z
2022-09-25T13:47:01Z,42.805,6.029,13.3078,4.60130,2470.474,2022-9-25T15:48:54Z
2022-09-25T13:50:04Z,42.805,6.029,13.3091,4.60099,2470.46,2022-9-25T15:51:57Z
2022-09-25T13:53:07Z,42.805,6.029,13.3101,4.60092,2470.437,2022-9-25T15:55:01Z
2022-09-25T13:56:10Z,42.805,6.029,13.3106,4.60095,2470.474,2022-9-25T15:58:04Z
2022-09-25T13:59:14Z,42.805,6.029,13.3100,4.60119,2470.474,2022-9-25T16:01:07Z
2022-09-25T14:02:17Z,42.805,6.029,13.3101,4.60114,2470.46,2022-9-25T16:04:10Z
2022-09-25T14:05:20Z,42.805,6.029,13.3098,4.60120,2470.497,2022-9-25T16:07:13Z
2022-09-25T14:08:23Z,42.805,6.029,13.3091,4.60127,2470.437,2022-9-25T16:10:16Z
2022-09-25T14:11:26Z,42.805,6.029,13.3093,4.60148,2470.46,2022-9-25T16:13:19Z
2022-09-25T14:14:29Z,42.805,6.029,13.3097,4.60120,2470.497,2022-9-25T16:16:22Z
2022-09-25T14:17:32Z,42.805,6.029,13.3102,4.60096,2470.497,2022-9-25T16:19:26Z
2022-09-25T14:20:35Z,42.805,6.029,13.3106,4.60093,2470.46,2022-9-25T16:22:29Z
2022-09-25T14:23:39Z,42.805,6.029,13.3102,4.60089,2470.45,2022-9-25T16:25:32Z
2022-09-25T14:26:42Z,42.805,6.029,13.3097,4.60095,2470.497,2022-9-25T16:28:35Z
2022-09-25T14:29:45Z,42.805,6.029,13.3102,4.60085,2470.474,2022-9-25T16:31:38Z
2022-09-25T14:32:48Z,42.805,6.029,13.3098,4.60114,2470.497,2022-9-25T16:34:41Z
2022-09-25T14:35:51Z,42.805,6.029,13.3102,4.60096,2470.507,2022-9-25T16:37:44Z
2022-09-25T14:38:54Z,42.805,6.029,13.3084,4.60085,2470.497,2022-9-25T16:40:48Z
2022-09-25T14:41:57Z,42.805,6.029,13.3051,4.60084,2470.497,2022-9-25T16:43:51Z
2022-09-25T14:45:00Z,42.805,6.029,13.3047,4.60081,2470.46,2022-9-25T16:46:54Z
2022-09-25T14:48:04Z,42.805,6.029,13.3088,4.60087,2470.52,2022-9-25T16:49:57Z
2022-09-25T14:51:07Z,42.805,6.029,13.3081,4.60082,2470.474,2022-9-25T16:53:00Z
2022-09-25T14:54:10Z,42.805,6.029,13.3075,4.60096,2470.474,2022-9-25T16:56:03Z
2022-09-25T14:57:13Z,42.805,6.029,13.3080,4.60086,2470.483,2022-9-25T16:59:06Z
2022-09-25T15:00:16Z,42.805,6.029,13.3075,4.60093,2470.483,2022-9-25T17:02:09Z
2022-09-25T15:03:19Z,42.805,6.029,13.3073,4.60114,2470.483,2022-9-25T17:05:13Z
2022-09-25T15:06:22Z,42.805,6.029,13.3063,4.60108,2470.497,2022-9-25T17:08:16Z
2022-09-25T15:09:25Z,42.805,6.029,13.3095,4.60079,2470.497,2022-9-25T17:11:19Z
2022-09-25T15:12:29Z,42.805,6.029,13.3089,4.60086,2470.507,2022-9-25T17:14:22Z
2022-09-25T15:15:32Z,42.805,6.029,13.3054,4.60119,2470.52,2022-9-25T17:17:25Z